QPF
0.02 0.01 0.00 0.00 0.00 0.00 0.00 0.00 0.00 0.00 0.00 0.00 0.00 0.00 0.00 0.00 0.00 0.00 0.00 0.00 0.00 0.00 0.00 0.00 0.00 0.00 0.00 0.00 0.00 0.01 0.02 0.06 0.05 0.00 0.00 0.00 0.00 0.09 0.16 0.15 0.13 0.16 0.14
0.01 0.00 0.00 0.00 0.00 0.00 0.00 0.00 0.00 0.00 0.00 0.00 0.00 0.00 0.00 0.00 0.00 0.00 0.00 0.00 0.00 0.00 0.00 0.00 0.00 0.00 0.00 0.00 0.00 0.00 0.01 0.02 0.05 0.00 0.00 0.00 0.00 0.00 0.00 0.05 0.10 0.15 0.46
0.01 0.00 0.00 0.00 0.00 0.00 0.00 0.00 0.00 0.00 0.00 0.00 0.00 0.00 0.00 0.00 0.00 0.00 0.00 0.00 0.00 0.00 0.00 0.00 0.00 0.00 0.00 0.00 0.00 0.00 0.01 0.02 0.03 0.02 0.00 0.01 0.00 0.00 0.00 0.00 0.00 0.06 0.40
0.01 0.00 0.00 0.00 0.00 0.00 0.00 0.00 0.00 0.00 0.00 0.00 0.00 0.00 0.00 0.00 0.00 0.00 0.00 0.00 0.00 0.00 0.00 0.00 0.00 0.00 0.00 0.00 0.01 0.01 0.02 0.03 0.04 0.04 0.01 0.01 0.01 0.01 0.03 0.02 0.00 0.02 0.07
0.02 0.01 0.00 0.00 0.00 0.00 0.00 0.00 0.00 0.00 0.00 0.00 0.00 0.00 0.00 0.00 0.00 0.00 0.00 0.00 0.00 0.00 0.00 0.00 0.00 0.02 0.02 0.02 0.01 0.01 0.02 0.04 0.06 0.05 0.02 0.02 0.03 0.04 0.03 0.13 0.07 0.05 0.03
0.02 0.03 0.01 0.00 0.00 0.00 0.00 0.00 0.00 0.00 0.00 0.00 0.00 0.00 0.00 0.00 0.00 0.00 0.00 0.00 0.00 0.00 0.00 0.00 0.01 0.04 0.03 0.02 0.01 0.01 0.01 0.02 0.04 0.06 0.02 0.02 0.04 0.07 0.11 0.16 0.13 0.09 0.01
0.02 0.01 0.00 0.00 0.00 0.00 0.00 0.00 0.00 0.00 0.00 0.00 0.00 0.00 0.00 0.00 0.00 0.00 0.00 0.00 0.00 0.00 0.00 0.01 0.00 0.00 0.01 0.00 0.01 0.01 0.01 0.00 0.01 0.03 0.04 0.01 0.03 0.02 0.10 0.09 0.07 0.05 0.04
0.00 0.00 0.00 0.00 0.00 0.00 0.00 0.00 0.00 0.00 0.00 0.00 0.00 0.00 0.00 0.00 0.00 0.00 0.00 0.00 0.00 0.00 0.01 0.01 0.00 0.01 0.03 0.02 0.01 0.02 0.02 0.01 0.00 0.00 0.00 0.02 0.06 0.11 0.10 0.07 0.07 0.06 0.05
0.00 0.00 0.00 0.00 0.00 0.00 0.00 0.00 0.00 0.00 0.00 0.00 0.00 0.00 0.00 0.00 0.00 0.00 0.00 0.00 0.00 0.00 0.00 0.02 0.06 0.07 0.09 0.02 0.03 0.04 0.04 0.03 0.06 0.01 0.00 0.00 0.08 0.18 0.19 0.11 0.09 0.11 0.02
0.00 0.00 0.00 0.00 0.00 0.00 0.00 0.00 0.00 0.00 0.00 0.00 0.00 0.00 0.00 0.00 0.00 0.00 0.00 0.00 0.00 0.00 0.01 0.07 0.13 0.15 0.12 0.06 0.05 0.10 0.09 0.14 0.20 0.21 0.06 0.01 0.07 0.16 0.17 0.02 0.03 0.01 0.00
0.01 0.00 0.00 0.00 0.00 0.00 0.00 0.00 0.00 0.00 0.00 0.00 0.00 0.00 0.00 0.00 0.00 0.00 0.00 0.00 0.01 0.03 0.19 0.33 0.09 0.14 0.15 0.19 0.15 0.13 0.23 0.32 0.27 0.33 0.31 0.21 0.20 0.24 0.18 0.14 0.04 0.00 0.00
0.01 0.00 0.00 0.00 0.00 0.00 0.00 0.00 0.00 0.01 0.01 0.00 0.00 0.00 0.00 0.00 0.00 0.00 0.00 0.00 0.04 0.15 0.27 0.28 0.29 0.57 0.23 0.14 0.07 0.06 0.16 0.34 0.42 0.38 0.38 0.39 0.33 0.31 0.24 0.14 0.07 0.07 0.09
0.02 0.01 0.01 0.02 0.02 0.01 0.00 0.00 0.01 0.03 0.02 0.00 0.00 0.00 0.00 0.00 0.00 0.00 0.00 0.00 0.03 0.18 0.14 0.16 0.39 0.52 0.21 0.12 0.07 0.05 0.05 0.16 0.25 0.28 0.23 0.31 0.16 0.07 0.06 0.08 0.06 0.05 0.06
0.10 0.12 0.09 0.05 0.06 0.02 0.01 0.02 0.04 0.05 0.02 0.00 0.00 0.00 0.00 0.00 0.00 0.00 0.00 0.00 0.00 0.12 0.16 0.06 0.11 0.17 0.16 0.07 0.01 0.00 0.01 0.02 0.02 0.04 0.03 0.04 0.03 0.02 0.03 0.07 0.07 0.04 0.00
0.40 0.26 0.12 0.06 0.04 0.02 0.04 0.06 0.05 0.03 0.00 0.00 0.00 0.00 0.00 0.00 0.00 0.00 0.00 0.00 0.00 0.01 0.05 0.07 0.06 0.05 0.04 0.04 0.05 0.06 0.03 0.01 0.01 0.01 0.01 0.00 0.00 0.00 0.00 0.00 0.00 0.00 0.00
0.18 0.19 0.12 0.07 0.02 0.05 0.11 0.07 0.03 0.01 0.01 0.00 0.00 0.00 0.00 0.00 0.00 0.00 0.00 0.00 0.00 0.00 0.00 0.01 0.03 0.01 0.01 0.01 0.01 0.02 0.06 0.04 0.02 0.02 0.02 0.01 0.01 0.00 0.00 0.00 0.00 0.00 0.00
0.12 0.04 0.00 0.01 0.03 0.05 0.02 0.01 0.02 0.02 0.00 0.00 0.00 0.00 0.00 0.00 0.00 0.00 0.00 0.00 0.00 0.00 0.00 0.00 0.00 0.00 0.00 0.00 0.02 0.01 0.01 0.01 0.01 0.00 0.00 0.00 0.00 0.00 0.00 0.00 0.00 0.01 0.00
0.00 0.00 0.00 0.00 0.07 0.07 0.02 0.05 0.05 0.05 0.02 0.01 0.00 0.00 0.00 0.00 0.00 0.00 0.00 0.00 0.00 0.00 0.00 0.00 0.00 0.00 0.00 0.00 0.00 0.00 0.00 0.00 0.00 0.00 0.00 0.00 0.00 0.00 0.00 0.00 0.00 0.00 0.00
0.05 0.06 0.09 0.12 0.08 0.02 0.02 0.09 0.12 0.07 0.05 0.20 0.10 0.01 0.00 0.00 0.00 0.00 0.00 0.00 0.00 0.00 0.00 0.00 0.00 0.00 0.00 0.00 0.00 0.00 0.00 0.00 0.00 0.00 0.00 0.00 0.00 0.00 0.00 0.00 0.00 0.00 0.00
0.07 0.14 0.18 0.14 0.10 0.08 0.03 0.20 0.23 0.09 0.06 0.04 0.04 0.00 0.00 0.00 0.00 0.00 0.00 0.00 0.00 0.00 0.00 0.00 0.00 0.00 0.00 0.00 0.00 0.00 0.00 0.00 0.00 0.00 0.00 0.00 0.00 0.00 0.00 0.00 0.00 0.00 0.00
0.00 0.04 0.07 0.01 0.01 0.02 0.02 0.03 0.04 0.09 0.05 0.00 0.00 0.00 0.00 0.00 0.00 0.00 0.00 0.00 0.00 0.00 0.00 0.00 0.00 0.00 0.00 0.00 0.00 0.00 0.00 0.00 0.00 0.00 0.00 0.00 0.00 0.00 0.00 0.00 0.00 0.00 0.00
0.01 0.00 0.02 0.00 0.00 0.00 0.01 0.07 0.26 0.06 0.02 0.00 0.00 0.00 0.00 0.00 0.00 0.00 0.00 0.00 0.00 0.00 0.00 0.00 0.00 0.00 0.00 0.00 0.00 0.00 0.00 0.00 0.00 0.00 0.00 0.00 0.00 0.00 0.00 0.00 0.00 0.00 0.00
0.01 0.00 0.00 0.00 0.00 0.00 0.00 0.00 0.04 0.06 0.01 0.00 0.00 0.00 0.00 0.00 0.00 0.00 0.00 0.00 0.00 0.00 0.00 0.00 0.00 0.00 0.00 0.00 0.00 0.00 0.00 0.00 0.00 0.00 0.00 0.00 0.00 0.00 0.00 0.00 0.00 0.00 0.00
0.00 0.00 0.01 0.02 0.01 0.00 0.00 0.00 0.00 0.00 0.00 0.00 0.00 0.00 0.00 0.00 0.00 0.00 0.00 0.00 0.00 0.00 0.00 0.00 0.00 0.00 0.00 0.00 0.00 0.00 0.00 0.00 0.00 0.00 0.00 0.00 0.00 0.00 0.00 0.00 0.00 0.00 0.00
0.00 0.00 0.00 0.01 0.02 0.00 0.00 0.00 0.00 0.00 0.00 0.00 0.00 0.00 0.00 0.00 0.00 0.00 0.00 0.00 0.00 0.00 0.00 0.00 0.00 0.00 0.00 0.00 0.00 0.00 0.00 0.00 0.00 0.00 0.00 0.00 0.00 0.00 0.00 0.00 0.00 0.00 0.00
0.00 0.00 0.00 0.00 0.00 0.00 0.00 0.00 0.00 0.00 0.00 0.00 0.00 0.00 0.00 0.00 0.00 0.00 0.00 0.00 0.00 0.00 0.00 0.00 0.00 0.00 0.00 0.00 0.00 0.00 0.00 0.00 0.00 0.00 0.00 0.00 0.00 0.00 0.00 0.00 0.00 0.00 0.00
MSLP
1012.52 1013.40 1014.24 1014.92 1015.34 1015.57 1015.79 1015.79 1015.83 1016.02 1016.11 1016.09 1015.91 1015.68 1015.58 1015.51 1015.43 1015.36 1015.24 1015.03 1014.85 1014.69 1014.43 1014.10 1013.57 1013.19 1012.70 1012.29 1011.91 1011.50 1011.25 1011.04 1010.16 1008.21 1008.51 1008.34 1008.66 1008.39 1008.33 1008.42 1008.92 1008.71 1010.60
1011.79 1012.78 1013.90 1014.83 1015.37 1015.70 1015.83 1015.80 1015.78 1015.85 1015.89 1015.85 1015.59 1015.45 1015.34 1015.23 1015.10 1015.02 1014.86 1014.62 1014.56 1014.30 1013.70 1013.20 1012.55 1011.97 1011.32 1010.88 1010.53 1010.18 1010.01 1009.81 1009.69 1007.97 1007.67 1007.63 1007.45 1007.57 1007.42 1007.65 1008.10 1008.58 1008.70
1011.55 1012.55 1013.47 1014.46 1015.19 1015.67 1015.73 1015.65 1015.56 1015.63 1015.65 1015.44 1015.33 1015.25 1015.12 1014.91 1014.76 1014.58 1014.55 1014.43 1014.17 1013.64 1012.98 1012.08 1011.01 1010.33 1009.43 1009.20 1008.81 1008.48 1008.62 1008.67 1008.36 1007.47 1006.29 1006.59 1005.87 1005.92 1006.19 1006.42 1006.89 1008.01 1007.78
1011.42 1012.35 1013.20 1013.97 1014.61 1015.20 1015.35 1015.33 1015.29 1015.35 1015.36 1015.27 1015.17 1015.20 1015.01 1014.77 1014.57 1014.47 1014.52 1014.21 1013.63 1012.71 1011.74 1010.74 1009.64 1008.61 1007.52 1007.28 1007.23 1007.00 1007.22 1007.24 1006.92 1006.35 1005.48 1005.53 1005.41 1005.10 1005.47 1005.67 1005.97 1005.92 1006.03
1011.37 1012.28 1012.97 1013.52 1014.07 1014.61 1014.98 1015.03 1014.99 1015.06 1014.98 1014.95 1015.01 1014.84 1014.57 1014.29 1014.17 1014.36 1014.27 1013.74 1012.79 1011.59 1010.53 1009.18 1007.95 1006.87 1006.11 1005.79 1005.83 1005.53 1005.77 1005.67 1005.14 1004.87 1004.49 1004.56 1004.61 1004.64 1004.72 1004.86 1005.16 1005.14 1005.06
1011.59 1012.41 1012.96 1013.42 1013.78 1014.25 1014.61 1014.89 1014.77 1014.74 1014.59 1014.69 1014.72 1014.63 1014.40 1014.18 1014.15 1014.07 1013.77 1013.16 1012.11 1010.89 1008.99 1007.47 1006.56 1005.28 1004.31 1004.11 1004.07 1004.05 1004.20 1004.23 1004.17 1003.78 1003.40 1003.30 1003.31 1003.75 1003.89 1004.09 1004.48 1004.98 1005.02
1011.54 1012.10 1012.73 1013.19 1013.53 1013.88 1014.19 1014.47 1014.49 1014.43 1014.37 1014.46 1014.39 1014.22 1014.18 1014.09 1014.09 1013.99 1013.43 1012.69 1011.59 1009.87 1008.13 1006.59 1005.03 1003.89 1003.35 1002.87 1002.49 1002.55 1002.56 1002.62 1002.83 1002.96 1002.49 1002.22 1002.37 1002.61 1002.92 1003.35 1003.52 1003.70 1003.73
1011.19 1011.91 1012.39 1012.82 1013.21 1013.52 1013.82 1014.18 1014.24 1014.21 1014.31 1014.37 1014.36 1014.09 1013.86 1013.91 1013.71 1013.65 1012.89 1012.05 1010.90 1009.21 1007.62 1005.79 1004.41 1002.89 1002.00 1001.83 1001.66 1001.49 1001.15 1000.64 1000.59 1001.05 1001.23 1001.27 1001.33 1001.56 1001.92 1002.08 1002.51 1002.67 1003.05
1010.77 1011.34 1011.99 1012.51 1012.97 1013.35 1013.71 1013.97 1014.11 1014.18 1014.09 1013.95 1013.73 1013.71 1013.81 1013.87 1013.54 1013.06 1012.54 1011.82 1010.41 1009.06 1006.91 1005.29 1004.03 1002.61 1001.34 1000.75 1000.97 1000.48 999.90 999.09 998.89 999.12 999.57 1000.09 1000.53 1000.90 1001.33 1001.67 1002.21 1002.41 1002.64
1010.51 1010.90 1011.41 1012.04 1012.60 1013.08 1013.52 1013.83 1013.69 1013.67 1013.65 1013.43 1013.25 1013.20 1013.42 1013.78 1013.37 1012.73 1012.62 1011.88 1010.72 1009.03 1006.72 1005.28 1003.92 1002.64 1000.99 999.87 1000.00 999.57 998.90 998.03 997.83 998.03 998.86 999.39 999.79 1000.42 1000.73 1000.73 1001.30 1001.90 1002.45
1010.47 1010.75 1011.24 1011.93 1012.55 1013.00 1013.45 1013.61 1013.79 1013.79 1013.87 1013.53 1013.29 1012.85 1013.22 1013.53 1012.87 1012.79 1012.43 1012.13 1011.05 1009.33 1007.68 1006.01 1004.48 1003.49 1002.22 1000.60 999.75 999.44 998.85 997.79 997.26 997.58 998.23 998.85 999.39 1000.06 1000.39 1000.53 1000.83 1001.20 1001.83
1010.15 1010.89 1011.44 1011.91 1012.43 1012.66 1013.17 1013.30 1013.30 1013.55 1013.55 1013.13 1013.36 1013.04 1013.13 1013.13 1012.73 1012.83 1012.46 1012.13 1011.03 1009.65 1008.61 1007.31 1005.97 1004.45 1003.12 1001.75 1000.82 1000.18 999.27 998.27 998.22 998.56 998.85 999.51 999.91 1000.25 1000.31 1000.33 1000.53 1000.93 1001.66
1009.77 1010.97 1011.63 1011.95 1012.51 1012.38 1012.63 1012.96 1012.91 1012.93 1013.27 1013.21 1013.38 1013.37 1013.32 1013.11 1012.86 1012.73 1012.60 1012.35 1011.21 1009.91 1009.21 1008.07 1006.76 1005.57 1004.42 1002.99 1002.25 1001.36 1000.76 1000.39 1000.17 999.92 1000.43 1000.37 1000.56 1001.14 1000.84 1001.05 1001.27 1001.95 1002.25
1011.03 1011.99 1012.15 1012.67 1012.88 1013.30 1012.94 1012.43 1012.67 1012.69 1012.82 1013.16 1013.43 1013.60 1013.39 1013.36 1013.37 1012.90 1012.84 1012.68 1011.53 1010.14 1009.42 1008.71 1007.50 1006.67 1005.74 1005.15 1004.07 1003.23 1002.84 1002.59 1002.37 1002.47 1002.38 1002.39 1002.23 1002.15 1002.20 1002.35 1002.44 1002.77 1002.93
1011.99 1011.62 1012.29 1012.47 1012.69 1012.02 1012.12 1012.83 1012.73 1012.72 1012.39 1012.47 1013.29 1013.61 1013.48 1013.80 1013.77 1013.22 1013.29 1013.27 1012.11 1010.86 1009.72 1008.97 1008.38 1007.61 1006.92 1006.08 1005.58 1005.29 1004.94 1004.49 1004.03 1004.01 1003.83 1003.82 1003.73 1003.65 1003.80 1003.85 1003.75 1003.78 1003.93
1011.79 1011.39 1011.37 1010.85 1011.16 1011.92 1012.21 1013.01 1012.88 1012.76 1012.85 1012.33 1013.11 1013.15 1013.34 1013.67 1013.55 1013.07 1012.97 1013.03 1012.05 1010.98 1010.11 1009.97 1009.68 1009.14 1008.43 1007.87 1007.21 1006.83 1006.40 1005.96 1005.74 1005.61 1005.41 1005.07 1005.07 1005.09 1005.04 1005.03 1004.94 1004.96 1004.91
1010.50 1010.54 1010.75 1011.06 1011.24 1011.63 1011.78 1012.45 1012.84 1013.41 1013.11 1012.48 1013.29 1013.53 1013.31 1013.65 1013.59 1013.20 1013.17 1013.08 1012.26 1011.41 1010.89 1010.88 1010.63 1010.17 1009.71 1009.09 1008.58 1008.13 1007.86 1007.41 1006.94 1006.69 1006.46 1006.29 1006.12 1006.00 1005.88 1005.74 1005.71 1005.69 1005.68
1010.45 1010.64 1010.76 1010.79 1010.75 1011.11 1011.11 1011.93 1012.55 1012.68 1012.78 1013.09 1013.05 1013.26 1013.35 1013.53 1013.76 1013.35 1013.45 1013.11 1012.59 1011.95 1011.67 1011.61 1011.47 1011.09 1010.85 1010.68 1010.19 1009.84 1009.42 1008.87 1008.27 1008.01 1007.67 1007.33 1007.11 1006.85 1006.53 1006.39 1006.29 1006.08 1005.94
1010.30 1010.29 1010.15 1010.20 1010.57 1010.57 1010.53 1011.01 1011.87 1012.62 1012.96 1012.63 1012.66 1012.63 1012.96 1013.36 1013.69 1013.50 1013.71 1013.43 1013.12 1012.77 1012.29 1012.07 1012.03 1011.99 1011.81 1011.59 1011.27 1011.19 1010.86 1010.53 1010.13 1009.62 1009.14 1008.64 1008.13 1007.76 1007.51 1007.21 1006.90 1006.56 1006.50
1009.89 1009.73 1009.87 1010.15 1010.45 1010.85 1010.71 1010.89 1010.97 1011.79 1012.26 1012.63 1012.64 1012.36 1012.51 1013.40 1013.81 1013.84 1013.77 1013.49 1013.19 1012.91 1012.65 1012.59 1012.60 1012.75 1012.81 1012.75 1012.59 1012.43 1012.11 1011.67 1011.41 1011.05 1010.55 1009.93 1009.36 1008.90 1008.59 1008.20 1007.83 1007.76 1007.71
1009.89 1009.90 1009.62 1009.66 1010.44 1010.69 1010.68 1010.93 1011.19 1011.90 1011.91 1012.29 1012.13 1012.19 1012.38 1012.81 1013.47 1013.72 1013.76 1013.64 1013.39 1013.10 1013.06 1013.19 1013.50 1013.54 1013.65 1013.74 1013.70 1013.57 1013.33 1013.12 1012.89 1012.48 1011.93 1011.22 1010.52 1009.99 1009.59 1009.15 1008.90 1008.73 1008.54
1009.91 1009.87 1009.97 1009.99 1010.17 1010.59 1010.99 1011.22 1011.39 1011.25 1012.09 1012.16 1012.31 1012.56 1012.49 1012.72 1013.42 1013.74 1013.79 1013.72 1013.43 1013.21 1013.33 1013.82 1014.13 1014.31 1014.62 1014.89 1014.78 1014.60 1014.39 1014.21 1013.87 1013.39 1012.87 1012.27 1011.48 1010.80 1010.29 1010.06 1009.80 1009.62 1009.41
1009.54 1009.41 1009.80 1010.12 1010.25 1010.48 1010.71 1010.90 1011.01 1011.23 1011.61 1011.86 1012.37 1012.98 1012.95 1013.19 1013.67 1013.89 1013.92 1013.86 1013.75 1013.71 1013.76 1014.19 1014.58 1015.07 1015.42 1015.45 1015.45 1015.55 1015.47 1015.19 1014.78 1014.45 1013.89 1013.20 1012.33 1011.63 1011.07 1010.75 1010.51 1010.21 1010.03
1009.35 1009.72 1010.06 1010.56 1010.72 1010.81 1010.73 1010.90 1011.44 1011.41 1011.27 1011.92 1012.60 1012.99 1013.15 1013.63 1013.99 1014.14 1014.18 1014.25 1014.13 1014.19 1014.28 1014.73 1015.19 1015.62 1015.93 1016.06 1016.15 1016.07 1015.99 1015.73 1015.30 1014.97 1014.44 1013.69 1012.99 1012.35 1011.80 1011.54 1011.29 1010.99 1010.85
1009.98 1010.18 1010.39 1010.70 1011.02 1011.23 1011.26 1011.33 1011.45 1011.67 1011.80 1012.24 1012.80 1013.24 1013.64 1014.06 1014.30 1014.43 1014.52 1014.59 1014.47 1014.49 1014.73 1015.18 1015.61 1015.91 1016.20 1016.31 1016.38 1016.32 1016.09 1015.81 1015.33 1014.77 1014.34 1013.81 1013.21 1012.74 1012.31 1012.09 1011.85 1011.55 1011.44
1010.20 1010.28 1010.42 1010.68 1010.89 1011.05 1011.29 1011.58 1011.95 1012.11 1012.62 1012.99 1013.34 1013.73 1014.13 1014.49 1014.67 1014.81 1014.91 1014.95 1014.92 1015.03 1015.21 1015.50 1015.87 1016.19 1016.34 1016.41 1016.49 1016.41 1016.13 1015.74 1015.25 1014.68 1014.35 1013.78 1013.36 1013.07 1012.74 1012.55 1012.33 1012.18 1012.00
Thickness
5802 5792 5783 5773 5767 5763 5757 5754 5750 5744 5739 5733 5731 5727 5723 5718 5714 5710 5706 5703 5699 5696 5693 5691 5692 5691 5691 5691 5692 5694 5694 5693 5695 5733 5731 5736 5732 5738 5740 5739 5737 5742 5725
5802 5790 5777 5767 5760 5753 5749 5745 5742 5735 5731 5726 5723 5718 5714 5710 5706 5700 5696 5693 5689 5687 5686 5685 5686 5685 5684 5685 5686 5688 5688 5691 5687 5711 5722 5728 5732 5732 5736 5736 5732 5727 5729
5797 5784 5774 5763 5753 5745 5741 5738 5734 5728 5723 5720 5715 5709 5705 5701 5697 5692 5687 5681 5678 5677 5677 5678 5679 5677 5680 5677 5680 5682 5681 5682 5683 5695 5717 5718 5735 5737 5737 5739 5736 5723 5728
5791 5779 5769 5760 5750 5740 5735 5731 5727 5721 5716 5710 5705 5699 5694 5689 5685 5680 5673 5669 5667 5669 5669 5668 5667 5669 5673 5670 5668 5673 5671 5672 5678 5685 5704 5708 5716 5729 5726 5727 5726 5734 5734
5785 5770 5761 5755 5745 5735 5727 5722 5719 5713 5709 5704 5696 5691 5686 5682 5678 5667 5661 5657 5659 5662 5661 5660 5659 5660 5661 5658 5656 5661 5660 5665 5674 5680 5693 5700 5706 5712 5719 5724 5719 5725 5729
5773 5760 5753 5744 5737 5728 5720 5714 5709 5705 5702 5695 5688 5682 5676 5672 5665 5659 5653 5649 5649 5650 5657 5658 5652 5655 5658 5656 5656 5658 5658 5660 5665 5673 5684 5693 5704 5706 5711 5716 5714 5712 5721
5763 5755 5746 5737 5729 5720 5713 5705 5700 5698 5694 5686 5681 5675 5668 5661 5653 5646 5644 5640 5639 5642 5648 5649 5655 5656 5656 5658 5659 5659 5660 5662 5664 5667 5677 5688 5694 5703 5708 5706 5712 5716 5721
5755 5745 5737 5729 5721 5713 5705 5697 5693 5689 5682 5676 5671 5667 5660 5652 5646 5640 5639 5635 5631 5635 5639 5645 5650 5658 5659 5657 5657 5656 5660 5667 5671 5671 5677 5686 5694 5699 5704 5710 5711 5717 5721
5748 5737 5728 5721 5711 5703 5694 5688 5683 5676 5673 5669 5665 5659 5651 5643 5639 5634 5631 5626 5625 5624 5635 5640 5645 5652 5659 5660 5655 5659 5664 5671 5677 5679 5684 5687 5692 5697 5700 5704 5705 5706 5708
5735 5727 5720 5711 5701 5692 5685 5679 5676 5671 5666 5663 5661 5655 5646 5636 5631 5629 5620 5614 5615 5616 5628 5635 5641 5648 5656 5666 5663 5666 5668 5675 5679 5684 5684 5687 5691 5693 5696 5704 5704 5699 5700
5725 5718 5709 5697 5688 5682 5674 5669 5664 5657 5653 5651 5650 5650 5641 5632 5630 5620 5612 5604 5607 5613 5616 5624 5632 5639 5645 5657 5664 5666 5670 5679 5686 5687 5686 5686 5688 5687 5691 5697 5701 5702 5699
5716 5705 5695 5685 5679 5674 5666 5662 5657 5650 5646 5644 5637 5640 5633 5628 5625 5614 5604 5598 5601 5609 5611 5614 5620 5630 5637 5647 5654 5658 5666 5674 5677 5677 5678 5677 5679 5681 5685 5692 5694 5695 5695
5701 5689 5682 5672 5664 5664 5660 5654 5650 5647 5638 5635 5631 5628 5624 5622 5619 5611 5600 5592 5597 5604 5604 5609 5614 5618 5626 5639 5642 5648 5654 5657 5660 5663 5664 5664 5668 5669 5677 5679 5682 5681 5683
5680 5669 5662 5655 5653 5648 5647 5649 5645 5640 5635 5629 5623 5620 5618 5615 5610 5608 5597 5590 5592 5600 5602 5602 5607 5612 5615 5620 5629 5635 5638 5641 5644 5644 5647 5649 5652 5657 5661 5664 5667 5668 5671
5665 5660 5654 5650 5647 5648 5646 5637 5636 5631 5633 5627 5618 5613 5612 5605 5602 5601 5593 5584 5587 5591 5597 5600 5599 5602 5607 5612 5616 5619 5621 5625 5630 5632 5636 5638 5641 5644 5646 5648 5652 5654 5656
5659 5657 5654 5655 5648 5639 5634 5626 5623 5622 5618 5620 5613 5614 5610 5603 5598 5599 5594 5584 5587 5592 5595 5590 5591 5590 5594 5596 5602 5606 5609 5614 5616 5618 5621 5626 5628 5630 5632 5634 5637 5639 5642
5660 5655 5648 5642 5637 5631 5629 5622 5616 5608 5607 5611 5605 5603 5602 5597 5594 5595 5592 5585 5588 5593 5592 5586 5584 5589 5592 5592 5595 5597 5598 5600 5605 5609 5612 5615 5618 5620 5622 5625 5626 5628 5630
5648 5644 5639 5636 5633 5625 5622 5614 5608 5606 5605 5602 5602 5603 5598 5593 5590 5589 5587 5587 5589 5590 5589 5585 5582 5582 5584 5583 5588 5589 5591 5595 5600 5604 5608 5611 5611 5613 5617 5618 5619 5622 5624
5639 5637 5634 5631 5624 5622 5622 5618 5610 5603 5600 5601 5604 5601 5597 5592 5586 5585 5580 5583 5583 5584 5586 5584 5580 5578 5577 5577 5579 5578 5581 5583 5586 5591 5595 5600 5603 5605 5606 5610 5614 5617 5616
5632 5629 5626 5622 5617 5613 5613 5610 5612 5606 5599 5595 5596 5599 5599 5587 5584 5581 5580 5581 5583 5583 5583 5582 5578 5575 5573 5572 5571 5570 5573 5576 5577 5579 5582 5587 5591 5595 5597 5601 5604 5603 5602
5622 5620 5623 5624 5613 5608 5609 5603 5602 5597 5596 5593 5595 5593 5591 5587 5581 5578 5577 5577 5579 5580 5578 5574 5569 5569 5566 5563 5562 5561 5563 5563 5563 5565 5569 5574 5579 5583 5584 5588 5589 5591 5591
5616 5617 5615 5614 5611 5604 5599 5597 5596 5598 5590 5590 5588 5586 5587 5583 5577 5574 5572 5572 5573 5575 5573 5567 5562 5560 5555 5551 5551 5551 5552 5552 5553 5555 5558 5561 5567 5571 5574 5575 5576 5577 5577
5614 5614 5610 5604 5601 5599 5596 5596 5595 5594 5591 5591 5585 5576 5579 5577 5571 5568 5568 5567 5567 5567 5564 5560 5556 5550 5545 5543 5542 5539 5538 5539 5541 5542 5544 5548 5554 5559 5562 5564 5565 5566 5566
5612 5607 5603 5597 5592 5590 5591 5590 5586 5587 5589 5583 5576 5572 5573 5569 5564 5561 5561 5559 5560 5560 5555 5550 5545 5541 5536 5533 5531 5530 5530 5531 5532 5533 5536 5541 5544 5547 5551 5552 5552 5554 5554
5602 5599 5595 5587 5582 5581 5583 5584 5584 5582 5581 5576 5570 5567 5562 5558 5555 5554 5553 5553 5553 5553 5549 5542 5536 5532 5530 5527 5524 5524 5524 5525 5527 5531 5533 5534 5537 5539 5541 5540 5539 5539 5538
5594 5593 5590 5586 5584 5581 5580 5578 5574 5574 5567 5563 5560 5555 5551 5548 5545 5546 5543 5543 5543 5541 5538 5534 5530 5525 5521 5519 5518 5517 5519 5521 5523 5526 5527 5528 5530 5529 5529 5527 5526 5524 5522